Regional Weather Roundup
Issued by NWS Kansas City/Pleasant Hill, MO

Home | Current Version | Previous Version | Graphics & Text | Print | Product List | Glossary Off
Versions: 1 2 3 4 5 6 7 8 9 10 11 12 13 14 15 16 17 18 19 20 21 22 23 24 25 26 27 28 29 30 31 32 33 34 35 36 37 38 39 40 41 42 43 44 45 46 47 48 49 50

000
ASUS43 KEAX 221210
RWREAX

WEATHER ROUNDUP FOR EASTERN KANSAS AND NORTHWEST MISSOURI
NATIONAL WEATHER SERVICE KANSAS CITY/PLEASANT HILL MO
700 AM CDT MON SEP 22 2014

KSZ040-057-103>105-MOZ028-029-037-043-221300-
...KANSAS CITY METROPOLITAN AREA...

CITY           SKY/WX    TMP DP  RH WIND       PRES   REMARKS
K.C. INTL      CLEAR     48  47  96 N5        30.31R
6HR MIN TEMP:  48; 6HR MAX TEMP:  57;

K.C. DOWNTOWN  CLEAR     52  49  89 CALM      30.31R
6HR MIN TEMP:  52; 6HR MAX TEMP:  60;

LEES SUMMIT    CLEAR     50  47  89 CALM      30.31R
6HR MIN TEMP:  50; 6HR MAX TEMP:  58;

OLATHE - IXD   CLEAR     51  49  92 N3        30.31R
6HR MIN TEMP:  48; 6HR MAX TEMP:  54;

OLATHE - OJC   CLEAR     52  48  86 N3        30.30R
6HR MIN TEMP:  50; 6HR MAX TEMP:  59;

LAWRENCE       CLEAR     45  43  93 NW5       30.32R

$$

MOZ001>008-011>017-020>025-030>033-038>040-044>046-053-054-221300-
...NORTHERN AND CENTRAL MISSOURI...

CITY           SKY/WX    TMP DP  RH WIND       PRES   REMARKS
ST. JOSEPH     CLEAR     46  44  93 CALM      30.31S
6HR MIN TEMP:  41; 6HR MAX TEMP:  51;

MOSBY            N/A     46  46 100 CALM      30.31R
WHITEMAN AFB   CLEAR     47  46  97 CALM      30.30R
6HR MIN TEMP:  46; 6HR MAX TEMP:  54;

CLINTON        CLEAR     48  48 100 CALM      30.30R
SEDALIA        CLEAR     49  47  93 NW6       30.30R
6HR MIN TEMP:  49; 6HR MAX TEMP:  56;

WARSAW         NOT AVBL
MARSHALL       CLEAR     50  50 100 CALM      30.32R
CHILLICOTHE      N/A     48  46  93 CALM      30.32R
6HR MIN TEMP:  47; 6HR MAX TEMP:  52;

MOBERLY        CLEAR     48  45  87 CALM      30.30R
KIRKSVILLE     CLEAR     45  43  93 W5        30.31R FOG
6HR MIN TEMP:  44; 6HR MAX TEMP:  53;


$$

MOZ041-047>049-056>058-063>065-088>090-097-221300-
...EASTERN AND SOUTHERN MISSOURI...

CITY           SKY/WX    TMP DP  RH WIND       PRES   REMARKS
ST. LOUIS INTL CLEAR     53  49  86 NW5       30.26R
6HR MIN TEMP:  53; 6HR MAX TEMP:  58;

SPIRIT OF STL  CLEAR     48  47  96 CALM      30.26R
COLUMBIA       CLEAR     48  47  96 NW6       30.29R
JEFFERSON CITY CLEAR     49  48  97 NW3       30.28R
MEXICO         CLEAR    N/A N/A N/A W3        30.28R
HANNIBAL       CLEAR     48  46  93 N5        30.28R
ROLLA          CLEAR     48  46  93 NW3       30.26R
LEBANON        CLEAR     50  48  93 CALM      30.28R
OSAGE BEACH    CLEAR     48  45  87 CALM      30.29R
SPRINGFIELD    CLEAR     50  46  86 CALM      30.27R
BRANSON        CLEAR     48  46  93 CALM      30.28R
NEVADA         CLEAR     48  48 100 CALM      30.31R
JOPLIN         CLEAR     48  48 100 NE3       30.29R
WEST PLAINS    CLEAR     50  46  86 N3        30.28R

$$

IAZ060-094-KSZ022-034>040-054-083-096-NEZ052-066-093-221300-
...KANSAS...SOUTHEAST NEBRASKA AND IOWA...

CITY           SKY/WX    TMP DP  RH WIND       PRES   REMARKS
TOPEKA         CLEAR     46  46 100 CALM      30.32R
6HR MIN TEMP:  46; 6HR MAX TEMP:  57;

MANHATTAN      CLEAR     46  45  96 CALM      30.32R
EMPORIA        CLEAR     50  47  89 CALM      30.31R
CHANUTE        CLEAR     49  48  97 NW3       30.30R
WICHITA        CLEAR     56  46  69 CALM      30.31R
OMAHA          PTCLDY    49  47  93 CALM      30.32R
LINCOLN        CLEAR     44  41  89 CALM      30.32S
FALLS CITY     CLEAR     47  46  97 NW3       30.31R
LAMONI         CLEAR     49  46  90 N3        30.30S
DES MOINES     CLEAR     49  46  90 NW3       30.31R

$$




USA.gov is the U.S. government's official web portal to all federal, state and local government web resources and services.